DW7601 San Vito IT current weather conditions

sailwx.info

Wind from 112

Air temperature 18.3° C
Dewpoint 15.6° C

Last reported at 2014-Sep-23 21:50 UTC.
Time now 2014-Sep-23 22:27 UTC

Location: N 39°27' E 009°32'.
View on Google Maps.

See reports from other nearby stations

  
Tides and Currents Weather Stations Pressure Air Temp Water Temp Dewpoint Dewpoint Depression Visibility Wind Speed Wind Dir Waves Ship Positions
date/time (UTC)wind fromknots sea level pressurealtimeterstation pressurevisibilityair tempwater tempwave heightnotes
2014-Sep-23 21:50 112 18.3
2014-Sep-23 21:40 112 18.9
2014-Sep-23 21:30 068 18.9
2014-Sep-23 21:20 022 18.9
2014-Sep-23 21:10 225 0 gusting 2 18.9
2014-Sep-23 21:00 180 18.9
2014-Sep-23 20:50 18.9
2014-Sep-23 20:40 068 19.4
2014-Sep-23 20:30 045 19.4
2014-Sep-23 20:20 045 19.4
2014-Sep-23 20:10 090 19.4
2014-Sep-23 20:00 022 20.0
2014-Sep-23 19:50 20.0
2014-Sep-23 19:40 338 20.0
2014-Sep-23 19:30 022 20.0
2014-Sep-23 19:20 022 20.6
2014-Sep-23 19:10 180 20.6
2014-Sep-23 19:00 248 0 gusting 1 20.6
2014-Sep-23 18:50 022 20.6
2014-Sep-23 18:40 068 21.1
2014-Sep-23 18:30 045 0 gusting 1 21.1
2014-Sep-23 18:20 270 0 gusting 1 21.1
2014-Sep-23 18:10 225 21.1
2014-Sep-23 18:00 112 21.1
2014-Sep-23 17:50 225 21.1
2014-Sep-23 17:40 045 0 gusting 1 21.7
2014-Sep-23 17:30 338 21.7
2014-Sep-23 17:20 202 0 gusting 1 22.2
2014-Sep-23 17:10 112 0 gusting 1 22.8
2014-Sep-23 17:00 112 0 gusting 1 22.2
2014-Sep-23 16:50 225 22.2
2014-Sep-23 16:40 248 0 gusting 1 22.8
2014-Sep-23 16:30 090 0 gusting 0 22.8
2014-Sep-23 16:20 018 22.8
2014-Sep-23 16:10 225 23.3
2014-Sep-23 16:00 225 23.3
2014-Sep-23 15:50 225 22.8
2014-Sep-23 15:40 225 22.8
2014-Sep-23 15:30 135 22.8
2014-Sep-23 15:20 202 0 gusting 1 22.2
2014-Sep-23 15:10 225 22.2
2014-Sep-23 15:00 045 22.2
2014-Sep-23 14:50 270 21.7
2014-Sep-23 14:40 270 21.7
2014-Sep-23 14:30 270 21.7
2014-Sep-23 14:20 270 21.7
2014-Sep-23 14:10 270 21.7
2014-Sep-23 14:00 270 21.7
2014-Sep-23 13:50 270 21.7
2014-Sep-23 13:40 270 22.2
2014-Sep-23 13:30 270 2 gusting 4 22.8
2014-Sep-23 13:20 090 4 gusting 1 24.4
2014-Sep-23 13:10 090 4 gusting 7 26.1
2014-Sep-23 13:00 022 4 gusting 6 27.8
2014-Sep-23 12:50 135 2 gusting 5 30.0
2014-Sep-23 12:40 30.0
2014-Sep-23 12:30 135 1 gusting 5 30.0
2014-Sep-23 12:20 112 1 gusting 6 30.0
2014-Sep-23 12:10 338 1 gusting 4 30.6
2014-Sep-23 12:00 28.3
2014-Sep-23 11:50 338 4 gusting 6 28.9
2014-Sep-23 11:40 045 4 gusting 6 28.9
2014-Sep-23 11:30 112 3 gusting 6 30.0
2014-Sep-23 11:20 022 2 gusting 5 28.9
2014-Sep-23 11:10 112 2 gusting 6 29.4
2014-Sep-23 11:00 090 2 gusting 6 30.6
2014-Sep-23 10:50 202 2 gusting 6 30.6
2014-Sep-23 10:40 022 4 gusting 6 31.1
2014-Sep-23 10:30 135 4 gusting 7 31.1
2014-Sep-23 10:20 022 4 gusting 6 30.6
2014-Sep-23 10:10 112 4 gusting 6 30.6
2014-Sep-23 10:00 090 2 gusting 7 30.0
2014-Sep-23 09:50 090 4 gusting 7 30.0
2014-Sep-23 09:40 068 2 gusting 7 29.4
2014-Sep-23 09:30 090 4 gusting 6 29.4
2014-Sep-23 09:20 090 4 gusting 8 28.9
2014-Sep-23 09:10 112 2 gusting 7 29.4
2014-Sep-23 09:00 090 2 gusting 7 29.4
2014-Sep-23 08:50 090 2 gusting 6 28.9
2014-Sep-23 08:40 158 1 gusting 4 28.3
2014-Sep-23 08:30 090 0 gusting 2 27.8
2014-Sep-23 08:20 112 0 gusting 2 27.2
2014-Sep-23 08:10 180 0 gusting 1 26.7
2014-Sep-23 08:00 068 0 gusting 1 26.1
2014-Sep-23 07:50 001 1 gusting 2 25.0
2014-Sep-23 07:40 24.4
2014-Sep-23 07:30 045 1 gusting 2 23.3
2014-Sep-23 07:20 068 1 gusting 1 22.8
2014-Sep-23 07:10 022 0 gusting 1 22.8
2014-Sep-23 07:00 090 0 gusting 4 22.8
2014-Sep-23 06:50 22.8
2014-Sep-23 06:40 068 22.8
2014-Sep-23 06:30 22.8
2014-Sep-23 06:20 022 1 gusting 5 22.8
2014-Sep-23 06:10 22.2
2014-Sep-23 06:00 001 0 gusting 1 22.8
2014-Sep-23 05:50 002 0 gusting 1 22.8
2014-Sep-23 05:40 024 0 gusting 1 22.8
2014-Sep-23 05:30 270 1 gusting 4 22.8
2014-Sep-23 05:20 066 2 gusting 4 22.8
2014-Sep-23 05:10 001 2 gusting 5 22.8
2014-Sep-23 05:00 022 2 gusting 6 22.8
2014-Sep-23 04:50 22.8
2014-Sep-23 04:40 020 1 gusting 4 23.3
2014-Sep-23 04:30 021 4 gusting 5 23.3
2014-Sep-23 04:20 250 4 gusting 6 22.8
2014-Sep-23 04:10 022 1 gusting 4 23.3
2014-Sep-23 04:00 021 1 gusting 4 23.3
2014-Sep-23 03:50 340 1 gusting 4 23.3
2014-Sep-23 03:40 294 1 gusting 4 23.3
2014-Sep-23 03:30 067 1 gusting 4 23.3
2014-Sep-23 03:20 271 1 gusting 1 23.3
2014-Sep-23 03:10 021 4 gusting 6 23.3
2014-Sep-23 03:00 023 4 gusting 6 23.3
2014-Sep-23 02:50 317 2 gusting 5 23.3
2014-Sep-23 02:40 023 2 gusting 4 23.9
2014-Sep-23 02:30 339 2 gusting 4 23.9
2014-Sep-23 02:20 338 1 gusting 6 23.9
2014-Sep-23 02:10 23.3
2014-Sep-23 02:00 067 2 gusting 5 23.3
2014-Sep-23 01:50 024 2 gusting 6 23.3
2014-Sep-23 01:40 338 2 gusting 5 23.3
2014-Sep-23 01:30 066 1 gusting 2 22.8
2014-Sep-23 01:20 340 1 gusting 2 22.8
2014-Sep-23 01:10 270 0 gusting 1 22.8
2014-Sep-23 01:00 267 0 gusting 1 22.8
2014-Sep-23 00:50 089 22.8
2014-Sep-23 00:40 181 0 gusting 1 23.3
2014-Sep-23 00:30 22.8
2014-Sep-23 00:20 270 22.8
2014-Sep-23 00:10 293 22.8
2014-Sep-23 00:00 114 23.3
2014-Sep-22 23:50 205 0 gusting 1 23.3
2014-Sep-22 23:40 225 23.9
2014-Sep-22 23:30 202 0 gusting 0 23.9
2014-Sep-22 23:20 023 0 gusting 2 23.9
2014-Sep-22 23:10 292 0 gusting 1 23.9
2014-Sep-22 23:00 182 0 gusting 1 23.9
2014-Sep-22 22:50 201 0 gusting 1 24.4
2014-Sep-22 22:40 022 0 gusting 2 23.9
2014-Sep-22 22:30 001 0 gusting 1 23.9
2014-Sep-22 22:20 133 24.4
2014-Sep-22 22:10 248 24.4
2014-Sep-22 22:00 182 24.4
2014-Sep-22 21:50 336 25.0
2014-Sep-22 21:40 180 25.0
2014-Sep-22 21:30 002 1 gusting 2 25.0
2014-Sep-22 21:20 001 0 gusting 1 24.4
2014-Sep-22 21:10 356 24.4
2014-Sep-22 21:00 270 24.4
2014-Sep-22 20:50 205 0 gusting 2 24.4
2014-Sep-22 20:40 248 0 gusting 1 24.4
2014-Sep-22 20:30 159 24.4
2014-Sep-22 20:20 270 0 gusting 1 24.4
2014-Sep-22 20:10 003 24.4
2014-Sep-22 20:00 091 24.4
2014-Sep-22 19:50 089 24.4
2014-Sep-22 19:40 023 25.0
2014-Sep-22 19:30 293 25.0
2014-Sep-22 19:20 291 25.0
2014-Sep-22 19:10 184 25.0
2014-Sep-22 19:00 091 25.0
2014-Sep-22 18:50 046 25.6
2014-Sep-22 18:40 066 25.6
2014-Sep-22 18:30 225 25.6
2014-Sep-22 18:20 271 25.6
2014-Sep-22 18:10 044 26.1
2014-Sep-22 18:00 090 26.1
2014-Sep-22 17:50 205 26.1
2014-Sep-22 17:40 179 26.7
2014-Sep-22 17:30 134 0 gusting 0 26.7
2014-Sep-22 17:20 137 0 gusting 1 26.7
2014-Sep-22 17:10 138 0 gusting 1 27.2
2014-Sep-22 17:00 177 27.2
2014-Sep-22 16:50 114 1 gusting 1 27.8
2014-Sep-22 16:40 025 1 gusting 2 28.3
2014-Sep-22 16:30 177 0 gusting 2 28.9
2014-Sep-22 16:20 178 1 gusting 2 28.9
2014-Sep-22 16:10 134 1 gusting 4 29.4
2014-Sep-22 16:00 024 0 gusting 1 29.4
2014-Sep-22 15:50 068 0 gusting 1 30.0
2014-Sep-22 15:40 268 1 gusting 2 30.0
2014-Sep-22 15:30 090 1 gusting 4 30.0
2014-Sep-22 15:20 137 2 gusting 5 31.1
2014-Sep-22 15:10 047 1 gusting 4 31.1
2014-Sep-22 15:00 092 1 gusting 5 31.1
2014-Sep-22 14:50 155 2 gusting 5 31.7
2014-Sep-22 14:40 341 2 gusting 6 32.2
2014-Sep-22 14:30 090 4 gusting 6 32.2
2014-Sep-22 14:20 133 4 gusting 6 32.8
2014-Sep-22 14:10 090 5 gusting 7 32.8
2014-Sep-22 14:00 093 5 gusting 7 33.9
2014-Sep-22 13:50 112 4 gusting 8 34.4
2014-Sep-22 13:40 091 4 gusting 8 35.0
2014-Sep-22 13:30 091 4 gusting 7 35.0
2014-Sep-22 13:20 199 2 gusting 6 35.6
2014-Sep-22 13:10 069 2 gusting 5 35.0
2014-Sep-22 13:00 112 2 gusting 6 35.0
2014-Sep-22 12:50 089 2 gusting 6 35.6
2014-Sep-22 12:40 113 1 gusting 4 35.6
2014-Sep-22 12:30 047 2 gusting 6 36.1
2014-Sep-22 12:20 047 2 gusting 6 36.7
2014-Sep-22 12:10 250 2 gusting 6 36.1
2014-Sep-22 12:00 088 1 gusting 5 36.7
2014-Sep-22 11:50 021 4 gusting 6 36.1
2014-Sep-22 11:40 291 2 gusting 6 36.1
2014-Sep-22 11:30 291 4 gusting 6 36.1
2014-Sep-22 11:20 268 5 gusting 7 35.6
2014-Sep-22 11:10 313 5 gusting 13 35.6
2014-Sep-22 11:00 293 2 gusting 13 35.6
2014-Sep-22 10:50 043 4 gusting 6 35.0
2014-Sep-22 10:40 292 4 gusting 6 33.9
2014-Sep-22 10:30 088 4 gusting 7 33.9
2014-Sep-22 10:20 002 4 gusting 6 32.8
2014-Sep-22 10:10 022 4 gusting 5 30.6
2014-Sep-22 10:00 338 4 gusting 6 30.0
2014-Sep-22 09:50 316 4 gusting 5 28.9
2014-Sep-22 09:40 065 4 gusting 6 28.3
2014-Sep-22 09:30 359 4 gusting 6 28.3
2014-Sep-22 09:20 339 2 gusting 6 27.8
2014-Sep-22 09:10 001 2 gusting 5 27.2
2014-Sep-22 09:00 26.7
2014-Sep-22 08:50 022 4 gusting 6 26.7
2014-Sep-22 08:40 022 4 gusting 6 26.1
2014-Sep-22 08:30 021 4 gusting 6 26.1
2014-Sep-22 08:20 358 4 gusting 6 26.1
2014-Sep-22 08:10 020 2 gusting 6 25.6
2014-Sep-22 08:00 001 4 gusting 6 25.6
2014-Sep-22 07:50 25.6
2014-Sep-22 07:40 022 4 gusting 7 25.6
2014-Sep-22 07:30 065 4 gusting 6 25.6
2014-Sep-22 07:20 065 2 gusting 6 25.6
2014-Sep-22 07:10 25.6
2014-Sep-22 07:00 339 3 gusting 6 25.0
2014-Sep-22 06:50 024 2 gusting 6 25.0
2014-Sep-22 06:40 25.0
2014-Sep-22 06:30 134 1 gusting 4 25.0
2014-Sep-22 06:20 25.0
2014-Sep-22 06:10 339 0 gusting 1 25.0
2014-Sep-22 06:00 25.0
2014-Sep-22 05:50 068 1 gusting 2 25.0
2014-Sep-22 05:40 292 1 gusting 4 25.0
2014-Sep-22 05:30 066 1 gusting 2 24.4
2014-Sep-22 05:20 314 1 gusting 4 24.4
2014-Sep-22 05:10 24.4
2014-Sep-22 05:00 338 1 gusting 2 24.4
2014-Sep-22 04:50 315 1 gusting 2 24.4
2014-Sep-22 04:40 202 1 gusting 4 25.0
2014-Sep-22 04:30 338 1 gusting 2 25.0
2014-Sep-22 04:20 25.0
2014-Sep-22 04:10 022 1 gusting 2 25.0
2014-Sep-22 04:00 292 1 gusting 2 25.0
2014-Sep-22 03:50 338 1 gusting 4 25.0
2014-Sep-22 03:40 25.6
2014-Sep-22 03:30 022 2 gusting 4 25.6
2014-Sep-22 03:20 26.1
2014-Sep-22 03:10 022 1 gusting 5 26.1
2014-Sep-22 03:00 022 1 gusting 4 26.1
2014-Sep-22 02:50 270 2 gusting 6 26.1
2014-Sep-22 02:40 022 2 gusting 5 26.1
2014-Sep-22 02:30 26.1
2014-Sep-22 02:20 26.1
2014-Sep-22 02:10 270 1 gusting 2 26.1
2014-Sep-22 02:00 315 1 gusting 4 26.1
2014-Sep-22 01:50 26.7
2014-Sep-22 01:40 270 0 gusting 2 26.7
2014-Sep-22 01:30 270 0 gusting 2 26.7
2014-Sep-22 01:20 338 1 gusting 4 26.7
2014-Sep-22 01:10 270 0 gusting 1 25.6
2014-Sep-22 01:00 338 0 gusting 1 26.1
2014-Sep-22 00:50 26.1
2014-Sep-22 00:40 090 0 gusting 2 25.6
2014-Sep-22 00:30 022 0 gusting 2 25.6
2014-Sep-22 00:20 022 1 gusting 2 25.6
2014-Sep-22 00:10 022 1 gusting 2 25.6
2014-Sep-22 00:00 046 1 gusting 2 26.1
2014-Sep-21 23:50 069 0 gusting 2 26.1
2014-Sep-21 23:40 068 26.1
2014-Sep-21 23:30 068 26.1
2014-Sep-21 23:20 26.7
2014-Sep-21 23:10 270 26.7
2014-Sep-21 23:00 270 26.1
2014-Sep-21 22:50 068 26.1
2014-Sep-21 22:40 022 0 gusting 1 26.7
2014-Sep-21 22:30 045 0 gusting 1 26.7
2014-Sep-21 22:20 022 0 gusting 1 26.7
2014-Sep-21 22:10 338 0 gusting 1 26.7
2014-Sep-21 22:00 315 0 gusting 1 26.7